Tracking 23726 objects as of 16-Oct-2021
HD Live streaming from Space Station
objects crossing your sky now

USA 40 R/B DEB

Track USA 40 R/B DEB now!
10-day predictions


NORAD ID: 23388
Int'l Code: 1989-061BL
Perigee: 497.4 km
Apogee: 5,764.9 km
Inclination: 57.0 °
Period: 153.6 minutes
Semi major axis: 9502 km
RCS: Unknown
Launch date: August 8, 1989
Source: United States (US)
Launch site: AIR FORCE EASTERN TEST RANGE (AFETR)

Note: This is SATELLITE DEBRIS
aabbcc
Your satellite tracking list
Your tracking list is empty




NASA's NSSDC Master Catalog

Two Line Element Set (TLE):
1 23388U 89061BL  21288.57460681  .00002332  00000-0  13335-2 0  9993
2 23388  57.0133  52.1556 2771712  33.8097 341.1953  9.37277438 91057
Source of the keplerian elements: AFSPC